Regional Weather Roundup
Issued by NWS Cleveland, OH

Home | Current Version | Previous Version | Text Only | Print | Product List | Glossary Off
Versions: 1 2 3 4 5 6 7 8 9 10 11 12 13 14 15 16 17 18 19 20 21 22 23 24 25 26 27 28 29 30 31 32 33 34 35 36 37 38 39 40 41 42 43 44 45 46 47 48 49 50

000
ASUS41 KCLE 230700
RWRCLE
OHIO REGIONAL WEATHER ROUNDUP
NATIONAL WEATHER SERVICE WILMINGTON, OH
300 AM EDT SAT AUG 23 2014

NOTE: "FAIR" INDICATES FEW OR NO CLOUDS BELOW 12,000 FEET WITH NO
SIGNIFICANT WEATHER AND/OR OBSTRUCTIONS TO VISIBILITY.

OHZ001>008-015>018-024>027-034-035-043-044-230800-
   NORTHWEST OHIO

CITY           SKY/WX    TMP DP  RH WIND       PRES   REMARKS
DEFIANCE       CLEAR     72  69  90 CALM      30.00S FOG
FINDLAY        CLEAR     72  69  90 NE5       29.98F FOG
TOLEDO EXPRESS MOCLDY    70  70 100 CALM      29.99F FOG
TOLEDO METCALF PTCLDY    73  69  87 NE5       30.00F
LIMA           PTCLDY    71  68  90 CALM      29.99F FOG
$$

OHZ009>014-019>023-028>033-038-089-230800-
   NORTHEAST OHIO

CITY           SKY/WX    TMP DP  RH WIND       PRES   REMARKS
CLE-HOPKINS    CLOUDY    71  69  93 CALM      30.00F FOG
CLE-LAKEFRONT  CLOUDY    73  67  81 N3        29.97F
CUY CO. ARPT   NOT AVBL
LORAIN-ELYRIA  CLOUDY    72  68  87 NW3       29.99F FOG
ASHTABULA      CLEAR     65  63  93 CALM      30.00F FOG
AKRON-CANTON   PTCLDY    68  65  90 N5        29.99F FOG
WOOSTER        NOT AVBL
MANSFIELD      CLEAR     68  68 100 N5        30.00F FOG
YOUNGSTOWN     PTCLDY    66  64  93 CALM      29.99F FOG
$$

OHZ042-051>053-060>062-070>072-077>081-230800-
  SOUTHWEST OHIO

CITY           SKY/WX    TMP DP  RH WIND       PRES   REMARKS
CINC-COVINGTON PTCLDY    74  71  91 CALM      29.99  FOG
CINC-LUNKEN    FOG       70  70 100 S6        29.98F VSB 1/2
HAMILTON       CLEAR     71  71 100 CALM      29.99F FOG
DAYTON         NOT AVBL
WRIGHT-PAT AFB NOT AVBL
DAYTON GENERAL CLEAR     73  72  96 NW3       29.99F
WILMINGTON     CLEAR     72  70  93 N5        29.99F
$$

OHZ036-037-039>041-045>050-054>059-063>069-073>076-082>088-230800-
  CENTRAL AND SOUTHEAST OHIO

CITY           SKY/WX    TMP DP  RH WIND       PRES   REMARKS
COLUMBUS       CLEAR     74  70  87 N6        29.96F
OSU AIRPORT    FOG       73  72  96 N5        29.98S VSB 3/4
BOLTON FIELD   NOT AVBL
RICKENBACK AFB NOT AVBL
NEWARK         PTCLDY    68  67  96 CALM      29.96F FOG
MARION         CLEAR     68  66  93 CALM      29.99S FOG
LANCASTER      FOG       71  69  93 CALM      29.97F VSB 1/4
ZANESVILLE     FOG       70  68  93 CALM      29.97S VSB 1
NEW PHILLY     FOG       68  68 100 NW3       29.98F VSB 1/4
$$



USA.gov is the U.S. government's official web portal to all federal, state and local government web resources and services.